"Pseudo-MPEC" for 2016-031B = NORAD 41553 = S510599

Created 2017 Feb 26 2:54:57 UT using Find_Orb

Astrometry:
S510599       C2016 08 05.21636 02 27 25.16 +01 05 08.0          11.9 R D0550Y00
S510599       C2016 08 05.21754 02 27 33.53 +01 06 30.6          12.2 R D0550Y00
S510599       C2016 08 05.21850 02 27 40.28 +01 07 37.2          12.1 R D0550Y00
S510599       C2016 08 05.27589 02 33 25.45 +02 11 24.1          12.2 R D0550Y00
S510599       C2016 08 05.27622 02 33 27.12 +02 11 45.0          11.7 R D0550Y00
S510599       C2016 08 05.27653 02 33 28.66 +02 12 04.7          11.9 R D0550Y00
S510599       C2016 08 05.27679 02 33 30.02 +02 12 21.0          12.0 R D0550Y00
S510599       C2016 08 05.27703 02 33 31.27 +02 12 37.1          12.6 R D0550Y00
S510599       C2016 08 05.27737 02 33 32.97 +02 12 57.8          12.3 R D0550Y00
S510599       C2016 08 05.27765 02 33 34.43 +02 13 16.6          12.6 R D0550Y00
S510599       C2016 08 05.27797 02 33 36.04 +02 13 36.7          12.5 R D0550Y00
S510599       C2016 08 05.27828 02 33 37.67 +02 13 57.1          12.6 R D0550Y00
S510599       C2016 08 05.27859 02 33 39.27 +02 14 16.8          12.4 R D0550Y00
S510599       C2016 08 05.27888 02 33 40.69 +02 14 34.7          12.5 R D0550Y00
S510599       C2016 08 05.27922 02 33 42.44 +02 14 56.7          12.3 R D0550Y00
S510599       C2016 08 05.33835 02 38 08.97 +03 15 20.1          12.8 R D0550Y00
S510599       C2016 08 05.33863 02 38 10.18 +03 15 36.7          12.8 R D0550Y00
S510599       C2016 08 05.33890 02 38 11.22 +03 15 52.4          12.4 R D0550Y00
S510599       C2016 08 05.33921 02 38 12.48 +03 16 10.6          12.5 R D0550Y00
S510599       C2016 08 05.33951 02 38 13.71 +03 16 28.6          12.4 R D0550Y00
S510599       C2016 08 05.33987 02 38 15.18 +03 16 50.1          12.9 R D0550Y00
S510599       C2016 08 05.34021 02 38 16.60 +03 17 10.2          12.8 R D0550Y00
S510599       C2016 08 05.34053 02 38 17.89 +03 17 28.7          13.0 R D0550Y00
S510599       C2016 08 05.34085 02 38 19.17 +03 17 47.4          12.8 R D0550Y00
S510599       C2016 08 05.34116 02 38 20.45 +03 18 05.9          12.9 R D0550Y00
S510599       C2016 08 05.34145 02 38 21.63 +03 18 22.6          12.7 R D0550Y00
S510599       C2016 08 05.34177 02 38 22.94 +03 18 41.8          12.9 R D0550Y00
2016-031B     C2016 08 20.34764 02 59 45.41 +06 28 16.9          12.7 R D0550Y00
2016-031B     C2016 08 20.34872 02 59 49.05 +06 29 12.9          12.4 R D0550Y00
2016-031B     C2016 08 20.35009 02 59 53.80 +06 30 26.4          12.7 R D0550Y00

Station data:
(Y00) SONEAR Observatory, Oliveira (S20.715080 W44.784960)  Brazil.
   Observers C. Jacques, E. Pimentel, J. Barros. Measurer C. Jacques. 0.28-m
   f/2.2 astrograph + CCD.

Orbital elements:  2016-031B = NORAD 41553 = S510599
   Perigee 2016 Aug 15.667540 +/- 1.68e-5 TT = 16:01:15 (JD 2457616.167540)
Epoch 2016 Aug 16.0 TT = JDT 2457616.5                        Find_Orb
M  88.5632649 +/- 0.0047            (J2000 equatorial)
n 266.3876654587 +/- 0.000144       Peri.  193.8027802 +/- 0.007
a 51633.008596 +/- 0.0186           Node    33.9543888 +/- 0.007
e   0.865760881 +/- 1.9e-5          Incl.   22.2923022 +/- 0.00055
P1946.00m/1.351d           H 26.3   G  0.15   U  6.8  
q 6931.1695553 +/- 0.984    Q 96334.847636 +/- 0.952
From 30 observations 2016 Aug. 5-20; mean residual 0".695
Residuals in arcseconds: 
160805 Y00 .666- .733-    160805 Y00 .546+ .318+    160805 Y00 .318+ .392+    
160805 Y00 .291- .260-    160805 Y00 1.27+ .923+    160805 Y00 .884+ .517+    
160805 Y00 .259- .367-    160805 Y00 1.57+ .837+    160805 Y00 .735+ .226+    
160805 Y00 1.82+ .752+    160805 Y00 .741+ .234+    160805 Y00 .452+ .142+    
160805 Y00 1.36+ .520+    160805 Y00 1.08+ .550+    160805 Y00 .789+ .453+    
160805 Y00 .531+ .378+    160805 Y00 .058+ .195-    160805 Y00 .856+ .145+    
160805 Y00 .890+ .043+    160805 Y00 1.07+ .079-    160805 Y00 1.06+ .584+    
160805 Y00 1.16+ .793+    160805 Y00 .158+ .269-    160820 Y00 .950+ .805+    
160805 Y00 .522+ .245-    160805 Y00 .111+ .306-    160820 Y00 .258- .491-    
160805 Y00 .927+ .661+    160805 Y00 .238+ .053+    160820 Y00 .144+ .431+    

Ephemerides (geocentric):
Date (UTC) HH   RA              Dec         delta   r     elong  mag " sig PA
---- -- -- --  ------------   ------------  ------ ------ -----  --- ---- ---
2016 08 20 00  02 00 07.055   -01 26 38.37   72728 1.0120 118.9 11.9  3.3  47
2016 08 20 01  02 09 47.562   -00 27 11.69   77764 1.0120 116.4 12.1  3.1  50
2016 08 20 02  02 18 21.849   +00 25 31.79   82085 1.0120 114.2 12.3  2.8  54
2016 08 20 03  02 26 08.327   +01 13 19.02   85760 1.0120 112.1 12.5  2.5  58
2016 08 20 04  02 33 19.614   +01 57 24.17   88836 1.0120 110.2 12.6  2.2  62
2016 08 20 05  02 40 04.836   +02 38 41.24   91353 1.0120 108.5 12.7  1.9  68
2016 08 20 06  02 46 30.918   +03 17 51.26   93338 1.0119 106.8 12.8  1.6  75
2016 08 20 07  02 52 43.377   +03 55 26.76   94812 1.0119 105.2 12.9  1.3  85
2016 08 20 08  02 58 46.821   +04 31 54.60   95789 1.0119 103.6 13.0  1.1  98
2016 08 20 09  03 04 45.299   +05 07 37.98   96278 1.0119 102.1 13.1  1.0 118
2016 08 20 10  03 10 42.561   +05 42 57.84   96284 1.0118 100.5 13.1  1.0 141
2016 08 20 11  03 16 42.281   +06 18 14.09   95808 1.0118  99.0 13.2  1.1 162
2016 08 20 12  03 22 48.258   +06 53 46.54   94845 1.0118  97.4 13.2  1.3 178
2016 08 20 13  03 29 04.642   +07 29 56.05   93384 1.0118  95.8 13.2  1.7  10
2016 08 20 14  03 35 36.206   +08 07 05.61   91413 1.0117  94.1 13.2  2.1  18
2016 08 20 15  03 42 28.716   +08 45 41.85   88910 1.0117  92.3 13.2  2.6  24
2016 08 20 16  03 49 49.463   +09 26 17.07   85848 1.0117  90.5 13.2  3.1  29
2016 08 20 17  03 57 48.107   +10 09 32.20   82190 1.0116  88.4 13.2  3.8  33
2016 08 20 18  04 06 38.062   +10 56 21.51   77885 1.0116  86.2 13.2  4.5  37
2016 08 20 19  04 16 38.970   +11 48 00.28   72868 1.0116  83.6 13.2  5.5  41